Location: Newark
(49.1939°N, 0.8136°E)
Time: 17:56:46
(UTC+00:00)

Envisat - Pass Details

Date: 24 November 2019
Orbit: 764 x 766 km, 98.1° (Epoch: 05 December)

Event Time Altitude Azimuth Distance (km) Brightness Sun altitude
Rises 17:30:50 0° 157° (SSE) 3,221 6.2 -13.4°
Reaches altitude 10° 17:33:08 10° 155° (SSE) 2,298 5.4 -13.8°
Maximum altitude 17:38:10 71° 73° (ENE) 812 2.9 -14.6°
Drops below altitude 10° 17:43:14 10° 350° (N) 2,314 5.4 -15.4°
Sets 17:45:34 0° 348° (NNW) 3,244 6.2 -15.8°
